Regional Weather Roundup
Issued by NWS Midland/Odessa, TX

Skip options and go directly to product.
Home | Oldest Version | Next Version | Current Version | All | Text Only | Save Text | Print | Product List | Glossary On

Skip product version selection by date and time.   
762
ASUS44 KMAF 240702
RWRMAF
MIDLAND AREA WEATHER ROUNDUP
NATIONAL WEATHER SERVICE MIDLAND TX
200 AM CDT FRI OCT 24 2014

...IN SOUTHWEST TEXAS AND SOUTHEAST NEW MEXICO...

CITY           SKY/WX    TMP DP  RH WIND       PRES   REMARKS
ALPINE         CLEAR     57  55  92 SW6       30.29S
ANDREWS        FAIR      60  58  94 SW9       30.16S
ARTESIA        NOT AVBL
BIG SPRING     CLEAR     62  60  90 S7        30.16S
CARLSBAD       CLEAR     62  57  83 S7        30.14R
DRYDEN           N/A     64  62  93 N6        30.13S
FORT STOCKTON  CLEAR     62  58  86 S9        30.15S
GUAD PASS      NOT AVBL
HOBBS          CLEAR     57  57 100 S6        30.19R
MARFA          CLEAR     52  50  93 N6        30.27S
MIDLAND AIRPK  CLEAR     64  59  86 S5        30.15S
MIDLAND INTL   CLEAR     62  58  86 S7        30.15R
ODESSA         CLEAR     62  58  86 SW8       30.16R
PECOS          CLEAR     61  57  87 CALM      30.12F
PRESIDIO       FAIR      68  58  71 N8        30.14S
SEMINOLE       CLEAR     58  56  92 SW6       30.17S
SNYDER         CLEAR     61  59  95 S6        30.14S
WINK           CLEAR     63  32  31 SE6       30.13S
$$
...OTHER STATIONS IN TEXAS...

CITY           SKY/WX    TMP DP  RH WIND       PRES   REMARKS
ABILENE        CLEAR     64  59  83 S7        30.12S
AMARILLO       CLEAR     57  56  96 S9        30.13S
AUSTIN         CLEAR     58  56  93 CALM      30.12R
BROWNSVILLE    CLEAR     68  66  93 NW3       30.07F
CORPUS CHRISTI CLEAR     67  64  90 CALM      30.08S
DALLAS FTW     CLEAR     63  55  75 S6        30.11S
DEL RIO        CLEAR     66  62  87 E7        30.10S
EL PASO        CLEAR     64  52  64 CALM      30.18R
HOUSTON INT    CLEAR     58  54  86 CALM      30.12R
LUBBOCK        CLEAR     59  56  89 W6        30.14S
SAN ANGELO     CLEAR     59  57  93 SW3       30.13S
SAN ANTONIO    CLEAR     67  59  75 NW3       30.13R
WACO           PTCLDY    63  56  78 SE5       30.12S
WICHITA FALLS  NOT AVBL
$$
...OTHER LOCATIONS IN NEW MEXICO...

CITY           SKY/WX    TMP DP  RH WIND       PRES   REMARKS
ALAMAGORDO     NOT AVBL
ALBUQUERQUE    CLEAR     61  36  39 CALM      30.29R
CANNON AFB     CLEAR     59  50  71 W7        30.18R
CLOVIS         CLEAR     54  46  76 W8        30.19S
HOLLOMAN AFB   CLEAR     55  47  75 NE6       30.19S
ROSWELL        CLEAR     57  54  89 CALM      30.15S
RUIDOSO        CLEAR     50  36  57 W7        30.35S
SANTA FE       PTCLDY    51  30  44 N9        30.31R
TRUTH OR CONSE CLEAR     57  47  69 W9        30.23R
TUCUMCARI      CLEAR     55  46  71 W7        30.14R
$$

USA.gov is the U.S. government's official web portal to all federal, state and local government web resources and services.